Location: Bergnerzell
(49.1816°N, 10.2565°E)
Time: 05:26:16
(UTC+00:00)

IDEFIX/ARIANE 42P - Pass Details

Date: 18 August 2024
Orbit: 782 x 799 km, 98.5° (Epoch: 08 September)

Event Time Altitude Azimuth Distance (km) Brightness Sun altitude
Rises 02:04:12 0° 8° (N) 3,286 6.7 -18.4°
Reaches altitude 10° 02:06:40 10° 0° (N) 2,355 5.7 -18.1°
Maximum altitude 02:11:23 37° 295° (WNW) 1,217 3.4 -17.6°
Enters shadow 02:13:27 26° 251° (WSW) 1,506 3.5 -17.4°
